Regional Weather Roundup
Issued by NWS

Home | Current Version | Previous Version | Text Only | Print | Product List | Glossary Off
Versions: 1 2 3 4 5 6 7 8 9 10 11 12 13 14 15 16 17 18 19 20 21 22 23 24 25 26 27 28 29 30 31 32 33 34 35 36 37 38 39 40 41 42 43 44 45 46 47 48 49 50

000
ASUS43 KMKX 251611
RWRWI

WISCONSIN REGIONAL WEATHER ROUNDUP
NATIONAL WEATHER SERVICE MILWAUKEE/SULLIVAN WI
1100 AM CDT TUE APR 25 2017

NOTE: "FAIR" INDICATES FEW OR NO CLOUDS BELOW 12,000 FEET WITH NO
SIGNIFICANT WEATHER AND/OR OBSTRUCTIONS TO VISIBILITY.

WIZ001-002-006>008-014>016-023>028-251700-
NORTHWEST WISCONSIN

CITY           SKY/WX    TMP DP  RH WIND       PRES   REMARKS
SUPERIOR ARPT  CLOUDY    44  38  82 E14       29.61R
ASHLAND        CLOUDY    49  40  71 NE8       29.59R
HAYWARD        CLOUDY    63  35  35 S7        29.56R
SIREN          CLOUDY    57  47  70 CALM      29.56R
CUMBERLAND     CLOUDY    64  36  34 S9        29.55S
RICE LAKE      CLOUDY    66  35  31 SE8       29.57R
CHETEK         CLOUDY    66  42  41 SE7       29.55F
LADYSMITH      CLOUDY    65  39  38 S9        29.59R
EAU CLAIRE     CLOUDY    68  38  33 S8        29.54F
MENOMONIE      PTSUNNY   69  37  30 S12       29.54F
NEW RICHMOND   PTSUNNY   64  37  36 S5        29.53S
OSCEOLA        PTSUNNY   64  39  39 S7        29.56S
$$

WIZ003>005-009-010-017-018-251700-
NORTH CENTRAL WISCONSIN

CITY           SKY/WX    TMP DP  RH WIND       PRES   REMARKS
MANITOWISH WTR MOSUNNY   64  37  37 S10       29.60S
ARBOR VITAE    MOSUNNY   64  36  34 SE10      29.61R
WOODRUFF       MOSUNNY   64  36  34 SE10      29.61R
RHINELANDER    SUNNY     68  38  33 S13       29.63R
EAGLE RIVER    MOSUNNY   66  32  28 S8        29.62S
LAND O LAKES   MOSUNNY   65  33  29 S7        29.64S
PHILLIPS       CLOUDY    65  39  37 SE9       29.58S
TOMAHAWK       PTSUNNY   65  39  38 CALM      29.62R
MEDFORD        CLOUDY    64  43  46 S13       29.60S
MERRILL        SUNNY     65  41  40 S6        29.62R
$$

WIZ029-030-035-036-043>047-251700-
CENTRAL WISCONSIN

CITY           SKY/WX    TMP DP  RH WIND       PRES   REMARKS
WAUSAU         CLOUDY    66  41  40 SE13      29.60S
MOSINEE        PTSUNNY   66  43  42 SE9       29.63R
MARSHFIELD     SUNNY     66  40  38 SE10      29.59S
STEVENS POINT  MOSUNNY   66  42  40 S10       29.63S
WAUPACA        SUNNY     70  45  40 SE8       29.64S
WAUTOMA        SUNNY     69  44  40 SE8       29.63S
WISC RAPIDS    NOT AVBL
CAMP DOUGLAS   PTSUNNY   68  41  37 S9        29.59F
$$

WIZ011>013-019>022-031-037>040-048>050-251700-
NORTHEAST WISCONSIN

CITY           SKY/WX    TMP DP  RH WIND       PRES   REMARKS
ANTIGO         SUNNY     65  41  41 S13       29.64S
SHAWANO        SUNNY     67  46  47 SE9       29.66S
OCONTO         SUNNY     60  48  63 S13       29.68S
STURGEON BAY   SUNNY     58  48  69 S18G26    29.69F
GREEN BAY      SUNNY     64  52  64 SE13      29.68S
MANITOWOC      SUNNY     54  46  74 S22G28    29.70F
APPLETON       MOSUNNY   64  43  45 SE9       29.64F
CLINTONVILLE   SUNNY     66  43  42 SE10      29.64S
OSHKOSH        SUNNY     69  47  45 S14G21    29.64S
$$

WIZ032>034-041-042-053>061-251700-
SOUTHWEST WISCONSIN

CITY           SKY/WX    TMP DP  RH WIND       PRES   REMARKS
LA CROSSE      MOSUNNY   70  42  36 S9        29.55F
SPARTA         CLOUDY    70  40  33 SE8       29.57F
VIROQUA        MOSUNNY   67  38  35 S9        29.59S
BOSCOBEL       PTSUNNY   70  41  34 VRB6      29.59F
PRAIRIE DU CHI CLOUDY    67  38  34 SE9       29.56F
PLATTEVILLE    CLOUDY    67  44  43 SE12      29.61S
$$

WIZ056-057-062-063-064-067-068-251700-
SOUTH CENTRAL WISCONSIN

CITY           SKY/WX    TMP DP  RH WIND       PRES   REMARKS
REEDSBURG      SUNNY     67  43  41 S9        29.61S
BARABOO/DELLS  SUNNY     67  40  37 S10       29.62S
LONE ROCK      CLOUDY    69  42  37 SE5       29.60F
MINERAL POINT  CLOUDY    68  43  40 SE12      29.61F
MADISON        PTSUNNY   69  42  37 S16       29.62F
MIDDLETON      SUNNY     70  43  38 S10       29.63F
WATERTOWN      SUNNY     71  47  42 S13       29.65S
MONROE         MOSUNNY   68  43  40 S13G20    29.63S
JANESVILLE     PTSUNNY   72  43  35 S13G18    29.64F
$$

WIZ051-052-058>065-066-070>072-251700-
SOUTHEAST WISCONSIN

CITY           SKY/WX    TMP DP  RH WIND       PRES   REMARKS
MILWAUKEE      MOSUNNY   64  51  62 SE9       29.68S
WAUKESHA       SUNNY     66  46  48 SE12G18   29.68S
MILWAUKEE/TIMM SUNNY     70  45  40 S6        29.68S
RACINE         SUNNY     60  49  66 S12       29.70F
KENOSHA        SUNNY     69  51  52 S10       29.68F
FOND DU LAC    SUNNY     68  46  45 S14       29.65S
SHEBOYGAN      SUNNY     56  50  80 S13       29.70S
WEST BEND      SUNNY     64  46  52 S8        29.67S
JUNEAU         SUNNY     68  46  45 S15G21    29.66F
$$

LSZ147-162-251700-
LAKE SUPERIOR

STATION/POSITION TIME  TEMP    WIND        PRES    WAVE
                       AIR SEA DIR/SP/G            HT/PER
                 (UTC) (F)     (DEG/KT/KT) (MB)    (FT/S)
DEVILS ISLAND    1600   39      80/  8/ 10 1003.3R
PORT WING        1440   38      30/ 13/ 16 1002.7
SAXON HARBOR     1540   43     340/  2/  4 1002.0R
$$

LMZ867-665-643>646-251700-
LAKE MICHIGAN

STATION/POSITION TIME  TEMP    WIND        PRES    WAVE
                       AIR SEA DIR/SP/G            HT/PER
                 (UTC) (F)     (DEG/KT/KT) (MB)    (FT/S)
CHAMBERS ISLAND  1540   58     160/  8/ 17 1005.4F
N MID LAKE BUOY  1550   43 37  120/  6/  8 1008.0F   2/ 3
NORTHPORT PIER   1540   50     150/ 13/ 20 1006.1F
KEWAUNEE LAKESHO 1548   46     170/  7/  8 1005.9F
SHEBOYGAN LAKESH 1600   45     170/  6/  7 1006.1S
PORT WASHINGTON  1530   47     140/  4/  6 1006.8S
MILWAUKEE LAKESH 1550   47     140/ 14/ 16   N/A
S MID LAKE BUOY  1450   46 41  120/ 12/ 12 1007.0F   1/ 3
KENOSHA   LAKESH 1600   49     160/ 10/ 11 1005.8
$$

TC  - TEMPERATURE IN CELSIUS
VSB - VISIBILITY IN STATUTE MILES
WCI - WIND CHILL INDEX
HX  - HEAT INDEX





USA.gov is the U.S. government's official web portal to all federal, state and local government web resources and services.